sat.trackr.live / text

‹ back to catalog

STARLINK-31597

NORAD 59464 · 2024-068K

PAYLOAD ACTIVE UNKNOWN

§ Identity

Operator
Country
US
Launch date
2024-04-10
Launch site
AFETR
Launch vehicle
Mass (kg)
RCS (m²)

Purposes: comms

External: N2YO · Heavens-Above · Gunter

§ Orbital elements

Epoch: 2026-05-25T04:47:41.966592Z

Period
94.27 min
Inclination
43.0027°
Eccentricity
0.0000960
Mean motion
15.27576777 rev/d
Perigee alt
482.4 km
Apogee alt
483.7 km
Semi-major
6,861.2 km
B*
-1.5390e-6
RAAN
322.4556°
Arg perigee
278.6178°
Mean anomaly
81.4565°
Rev number
12,017

§ Raw data

STARLINK-315971 59464U 24068K   26145.19979128 -.00000304  00000+0 -15390-5 0  99932 59464  43.0027 322.4556 0000960 278.6178  81.4565 15.27576777120171

JSON: /api/v1/satellites/59464 · /tle

For live sub-satellite position, see the globe view (requires WebGL).

§ Visibility from observer

Set your observer location to see the next 7 days of passes ≥ 10°. The values pass through the URL so the page stays shareable.

No JS? Fill the form by hand. The geolocation button needs JavaScript.